Météo par heure à Kyshchyntsi

Ce jour, 25 Juillet, Dimanche

Heure Température Précipitation Vent Pression Humidité
00:00 +21°C° 0 mm 1 m/s 745 mmHg 63%
01:00 +21°C° 0 mm 1 m/s 745 mmHg 64%
02:00 +21°C° 0 mm 1 m/s 745 mmHg 64%
03:00 +21°C° 0 mm 1 m/s 745 mmHg 65%
04:00 +21°C° 0 mm 1 m/s 745 mmHg 65%
05:00 +21°C° 0 mm 1 m/s 745 mmHg 66%
06:00 +22°C° 0 mm 1 m/s 745 mmHg 65%
07:00 +20°C° 0 mm 0 m/s 746 mmHg 65%
08:00 +21°C° 0 mm 0 m/s 746 mmHg 64%
09:00 +22°C° 0 mm 0 m/s 746 mmHg 59%
10:00 +25°C° 0 mm 1 m/s 746 mmHg 55%
11:00 +26°C° 0 mm 1 m/s 747 mmHg 50%
12:00 +27°C° 0 mm 2 m/s 746 mmHg 49%
13:00 +27°C° 0 mm 2 m/s 746 mmHg 48%
14:00 +27°C° 0 mm 2 m/s 746 mmHg 47%
15:00 +27°C° 0 mm 2 m/s 746 mmHg 50%
16:00 +26°C° 0 mm 1 m/s 746 mmHg 53%
17:00 +26°C° 0 mm 1 m/s 746 mmHg 56%
18:00 +25°C° 0 mm 1 m/s 746 mmHg 58%
19:00 +24°C° 0 mm 1 m/s 746 mmHg 59%
20:00 +20°C° 0 mm 0 m/s 746 mmHg 61%
21:00 +22°C° 0 mm 1 m/s 747 mmHg 62%
22:00 +22°C° 0 mm 1 m/s 747 mmHg 62%
23:00 +21°C° 0 mm 1 m/s 747 mmHg 62%

Demain, 26 Juillet, Lundi

Heure Température Précipitation Vent Pression Humidité
00:00 +20°C° 0 mm 2 m/s 747 mmHg 63%
01:00 +19°C° 0 mm 2 m/s 747 mmHg 64%
02:00 +19°C° 0 mm 2 m/s 747 mmHg 65%
03:00 +19°C° 0 mm 2 m/s 747 mmHg 67%
04:00 +18°C° 0 mm 2 m/s 747 mmHg 69%
05:00 +18°C° 0 mm 2 m/s 747 mmHg 71%
06:00 +19°C° 0 mm 2 m/s 747 mmHg 70%
07:00 +21°C° 0 mm 2 m/s 747 mmHg 68%
08:00 +23°C° 0 mm 2 m/s 747 mmHg 67%
09:00 +24°C° 0 mm 2 m/s 748 mmHg 63%
10:00 +26°C° 0 mm 2 m/s 748 mmHg 60%
11:00 +27°C° 0 mm 2 m/s 748 mmHg 56%
12:00 +27°C° 0 mm 2 m/s 748 mmHg 53%
13:00 +28°C° 0 mm 2 m/s 747 mmHg 51%
14:00 +28°C° 0 mm 2 m/s 747 mmHg 48%
15:00 +28°C° 0 mm 2 m/s 747 mmHg 49%
16:00 +28°C° 0 mm 2 m/s 747 mmHg 50%
17:00 +28°C° 0 mm 2 m/s 747 mmHg 51%
18:00 +26°C° 0 mm 2 m/s 747 mmHg 56%
19:00 +24°C° 0 mm 3 m/s 747 mmHg 61%
20:00 +22°C° 0 mm 3 m/s 747 mmHg 65%
21:00 +21°C° 0 mm 3 m/s 747 mmHg 68%
22:00 +20°C° 0 mm 3 m/s 747 mmHg 71%
23:00 +20°C° 0 mm 3 m/s 747 mmHg 73%

Après-demain, 27 Juillet, Mardi

Heure Température Précipitation Vent Pression Humidité
00:00 +19°C° 0 mm 3 m/s 747 mmHg 73%
01:00 +19°C° 0 mm 3 m/s 747 mmHg 72%
02:00 +19°C° 0 mm 3 m/s 747 mmHg 72%
03:00 +19°C° 0 mm 3 m/s 747 mmHg 72%
04:00 +19°C° 0 mm 3 m/s 747 mmHg 72%
05:00 +19°C° 0 mm 3 m/s 747 mmHg 71%
06:00 +21°C° 0 mm 3 m/s 747 mmHg 67%
07:00 +22°C° 0 mm 3 m/s 747 mmHg 63%
08:00 +25°C° 0 mm 4 m/s 747 mmHg 59%
09:00 +27°C° 0 mm 4 m/s 746 mmHg 54%
10:00 +28°C° 0 mm 5 m/s 746 mmHg 50%
11:00 +30°C° 0 mm 5 m/s 746 mmHg 45%
12:00 +32°C° 0 mm 5 m/s 746 mmHg 44%
13:00 +32°C° 0 mm 6 m/s 746 mmHg 42%
14:00 +33°C° 0 mm 6 m/s 746 mmHg 40%
15:00 +32°C° 0 mm 5 m/s 746 mmHg 43%
16:00 +32°C° 0 mm 5 m/s 745 mmHg 45%
17:00 +32°C° 0 mm 4 m/s 745 mmHg 48%
18:00 +29°C° 0 mm 4 m/s 745 mmHg 51%
19:00 +28°C° 0 mm 4 m/s 744 mmHg 55%
20:00 +27°C° 0 mm 4 m/s 744 mmHg 58%
21:00 +25°C° 0.2 mm 3 m/s 744 mmHg 62%
22:00 +24°C° 0.2 mm 3 m/s 744 mmHg 67%
23:00 +23°C° 0.2 mm 2 m/s 744 mmHg 71%

28 Juillet, Mercredi

Heure Température Précipitation Vent Pression Humidité
00:00 +21°C° 0.6 mm 2 m/s 744 mmHg 76%
01:00 +20°C° 0.6 mm 3 m/s 744 mmHg 81%
02:00 +20°C° 0.6 mm 3 m/s 744 mmHg 86%
03:00 +20°C° 0.1 mm 3 m/s 743 mmHg 86%
04:00 +20°C° 0.1 mm 3 m/s 743 mmHg 87%
05:00 +19°C° 0.1 mm 3 m/s 743 mmHg 87%
06:00 +21°C° 0 mm 3 m/s 743 mmHg 82%
07:00 +24°C° 0 mm 3 m/s 743 mmHg 77%
08:00 +25°C° 0 mm 3 m/s 743 mmHg 71%
09:00 +27°C° 0 mm 3 m/s 743 mmHg 65%
10:00 +28°C° 0 mm 4 m/s 743 mmHg 60%
11:00 +30°C° 0 mm 4 m/s 743 mmHg 54%
12:00 +32°C° 0 mm 4 m/s 742 mmHg 52%
13:00 +33°C° 0 mm 4 m/s 742 mmHg 50%
14:00 +33°C° 0 mm 4 m/s 742 mmHg 48%
15:00 +33°C° 0 mm 3 m/s 742 mmHg 50%
16:00 +33°C° 0 mm 3 m/s 741 mmHg 52%
17:00 +33°C° 0 mm 3 m/s 741 mmHg 53%
18:00 +30°C° 0 mm 3 m/s 741 mmHg 58%
19:00 +28°C° 0 mm 2 m/s 741 mmHg 63%
20:00 +26°C° 0 mm 2 m/s 741 mmHg 67%
21:00 +26°C° 0 mm 2 m/s 741 mmHg 69%
22:00 +25°C° 0 mm 1 m/s 741 mmHg 71%
23:00 +24°C° 0 mm 1 m/s 741 mmHg 73%

29 Juillet, Jeudi

Heure Température Précipitation Vent Pression Humidité
00:00 +23°C° 0.4 mm 1 m/s 741 mmHg 76%
01:00 +23°C° 0.4 mm 1 m/s 740 mmHg 80%
02:00 +22°C° 0.4 mm 1 m/s 740 mmHg 84%
03:00 +21°C° 0.2 mm 2 m/s 740 mmHg 86%
04:00 +21°C° 0.2 mm 2 m/s 740 mmHg 89%
05:00 +20°C° 0.2 mm 3 m/s 740 mmHg 91%
06:00 +22°C° 0 mm 3 m/s 740 mmHg 86%
07:00 +24°C° 0 mm 2 m/s 740 mmHg 81%
08:00 +26°C° 0 mm 2 m/s 740 mmHg 77%
09:00 +27°C° 0 mm 3 m/s 740 mmHg 71%
10:00 +29°C° 0 mm 3 m/s 740 mmHg 65%
11:00 +30°C° 0 mm 3 m/s 740 mmHg 59%
12:00 +30°C° 0.2 mm 4 m/s 740 mmHg 59%
13:00 +30°C° 0.2 mm 5 m/s 740 mmHg 58%
14:00 +30°C° 0.2 mm 6 m/s 740 mmHg 58%
15:00 +29°C° 0 mm 6 m/s 740 mmHg 59%
16:00 +29°C° 0 mm 6 m/s 740 mmHg 59%
17:00 +28°C° 0 mm 6 m/s 740 mmHg 60%
18:00 +27°C° 0 mm 6 m/s 740 mmHg 64%
19:00 +25°C° 0 mm 5 m/s 740 mmHg 68%
20:00 +23°C° 0 mm 4 m/s 741 mmHg 72%
21:00 +22°C° 0 mm 4 m/s 741 mmHg 76%
22:00 +21°C° 0 mm 4 m/s 741 mmHg 80%
23:00 +20°C° 0 mm 4 m/s 741 mmHg 84%

30 Juillet, Vendredi

Heure Température Précipitation Vent Pression Humidité
00:00 +19°C° 0 mm 3 m/s 741 mmHg 87%
01:00 +19°C° 0 mm 3 m/s 741 mmHg 89%
02:00 +18°C° 0 mm 3 m/s 742 mmHg 92%
03:00 +18°C° 0 mm 3 m/s 742 mmHg 92%
04:00 +17°C° 0 mm 3 m/s 742 mmHg 92%
05:00 +17°C° 0 mm 3 m/s 742 mmHg 93%
06:00 +19°C° 0 mm 3 m/s 742 mmHg 85%
07:00 +21°C° 0 mm 3 m/s 742 mmHg 77%
08:00 +22°C° 0 mm 3 m/s 743 mmHg 69%
09:00 +25°C° 0 mm 3 m/s 743 mmHg 62%
10:00 +26°C° 0 mm 3 m/s 743 mmHg 55%
11:00 +28°C° 0 mm 3 m/s 743 mmHg 48%
12:00 +28°C° 0 mm 3 m/s 743 mmHg 45%
13:00 +29°C° 0 mm 3 m/s 742 mmHg 42%
14:00 +29°C° 0 mm 3 m/s 742 mmHg 39%
15:00 +29°C° 0 mm 3 m/s 742 mmHg 41%
16:00 +29°C° 0 mm 2 m/s 742 mmHg 42%
17:00 +29°C° 0 mm 2 m/s 742 mmHg 43%
18:00 +28°C° 0 mm 2 m/s 742 mmHg 47%
19:00 +26°C° 0 mm 1 m/s 742 mmHg 51%
20:00 +24°C° 0 mm 1 m/s 742 mmHg 55%
21:00 +24°C° 0 mm 1 m/s 742 mmHg 56%
22:00 +23°C° 0 mm 2 m/s 742 mmHg 58%
23:00 +21°C° 0 mm 2 m/s 742 mmHg 59%
Voir plus

Nous avons besoin de votre consentement

Meteoprog et ses fournisseurs de services peuvent stocker et accéder à des données personnelles telles que des cookies, des identifiants d'appareils ou d'autres technologies similaires sur votre appareil et traiter ces données pour personnaliser le contenu et les publicités, ainsi que pour fournir des fonctionnalités de médias sociaux et analyser le trafic.

  • Stocker et/ou accéder à des informations sur votre appareil

    Des cookies, des identifiants d'appareils ou d'autres informations peuvent être stockés ou accessibles sur votre appareil aux fins indiquées ci-dessus.

  • Annonces et contenus personnalisés, mesure des annonces et des contenus, connaissance de l'audience et développement de produits

    Les annonces et le contenu peuvent être personnalisés en fonction d'un profil. D'autres données peuvent être ajoutées pour mieux personnaliser les annonces et le contenu. Les performances des publicités et du contenu peuvent être mesurées. Il est possible d'obtenir des informations sur le public qui a vu les publicités et le contenu. Ces données peuvent être utilisées pour développer ou améliorer l'expérience de l'utilisateur, les systèmes et les logiciels.

En cliquant sur "J'accepte", vous autorisez l'utilisation de cookies, des identifiants d'appareils, des balises web ou d'autres technologies similaires. Vos paramètres peuvent être modifiés dans le navigateur de votre appareil.

Dans certains cas, des intérêts légitimes peuvent être invoqués plutôt qu'un consentement. Vous pouvez en savoir plus à ce sujet dans notre Politique de confidentialité et de cookies.